Location: Prairie State College
(41.5244°N, 87.6382°W)
Time: 15:32:50
(UTC-05:00)

ARGOS Delta rocket - Visible Passes

Search period start: 30 May 2015 00:00
Search period end: 09 June 2015 00:00
Orbit: 635 x 840 km, 96.5° (Epoch: 29 May)

Date Brightness Start Highest point End Pass type
(mag) Time Alt. Az. Time Alt. Az. Time Alt. Az.
30 May 5.2 21:18:17 13° ESE 21:21:47 26° ENE 21:25:49 10° NNE visible
30 May 5.1 22:57:55 24° SW 23:00:21 37° W 23:04:53 10° NNW visible
31 May 3.9 22:12:39 27° SSE 22:15:29 83° ENE 22:20:22 10° N visible
31 May 6.5 23:53:30 10° W 23:54:48 11° W 23:55:44 10° WNW visible
01 Jun 4.9 21:27:23 15° SE 21:30:48 31° ENE 21:35:05 10° N visible
01 Jun 5.4 23:07:00 20° SW 23:09:30 29° W 23:13:41 10° NW visible
02 Jun 3.9 22:21:44 27° S 22:24:33 78° W 22:29:23 10° NNW visible
03 Jun 4.6 21:36:28 17° SE 21:39:50 39° ENE 21:44:17 10° N visible
03 Jun 5.8 23:16:06 16° SW 23:18:40 23° W 23:22:23 10° NW visible
04 Jun 5.7 20:52:34 10° ESE 20:55:18 16° ENE 20:58:10 10° NNE visible
04 Jun 4.2 22:30:50 25° S 22:33:38 60° W 22:38:21 10° NNW visible
05 Jun 4.2 21:45:34 19° SE 21:48:52 49° ENE 21:53:26 10° N visible
05 Jun 6.1 23:25:11 12° SW 23:27:51 17° W 23:30:55 10° NW visible
06 Jun 5.5 21:00:57 10° ESE 21:04:17 19° ENE 21:07:39 10° NNE visible
06 Jun 4.6 22:39:55 22° SSW 22:42:44 46° W 22:47:16 10° NNW visible
07 Jun 3.9 21:54:39 20° SSE 21:57:55 63° ENE 22:02:32 10° N visible
07 Jun 6.3 23:34:37 10° WSW 23:37:03 13° W 23:39:11 10° WNW visible
08 Jun 5.2 21:09:31 10° ESE 21:13:16 24° ENE 21:17:00 10° NNE visible
08 Jun 5.0 22:49:00 19° SSW 22:51:51 36° W 22:56:06 10° NNW visible
